Theta_e
320 319 319 318 317 317 316 315 316 317 318 317 317 317 316 315 315 316 316 315 315 315 316 317 317 316 316 316 317 316 317 307 304 301 300 305 313 320 329 327 329 326 328 309 308 307 302 302 304 302 300 302 300 298 299 300 295 296 291 285 283 285 283 287 288 287 288 289 291 292 293 293 293 297 297 297 296 294 296 295 299 299 299 301 303 303 302 301
319 319 319 318 318 318 316 315 317 317 317 318 318 317 317 316 315 314 315 315 315 315 317 317 317 316 316 316 316 316 311 303 301 302 302 313 319 324 325 330 331 329 319 308 306 302 302 300 301 298 299 299 297 297 298 296 299 293 284 285 287 285 290 290 289 290 290 293 293 293 293 293 294 295 294 294 295 295 295 296 297 297 299 300 300 301 300 300
318 318 318 319 319 318 317 317 317 316 317 318 318 318 317 316 315 314 314 314 314 314 316 316 316 316 315 315 316 317 307 301 299 297 304 326 324 324 323 330 333 327 312 307 305 304 302 302 300 297 295 295 293 295 295 295 297 292 290 286 288 289 289 290 290 293 291 293 293 294 295 293 295 294 296 293 293 294 293 294 296 295 296 298 298 298 298 298
318 318 318 319 319 318 318 316 316 315 316 317 317 317 317 316 315 314 313 313 314 314 315 314 314 314 314 315 316 310 303 299 294 298 302 323 331 333 328 325 333 324 307 305 306 305 300 299 297 298 294 294 291 292 293 294 294 291 290 287 288 290 291 293 293 293 295 294 294 294 294 293 295 294 293 293 291 293 294 296 295 295 297 298 299 298 297 297
318 317 317 318 319 319 318 316 316 316 316 317 317 317 317 316 314 313 313 313 313 314 313 314 314 314 314 315 315 305 300 292 295 300 306 331 332 333 333 327 331 311 310 304 304 301 301 298 296 295 295 291 291 291 290 291 294 290 292 294 293 290 291 295 294 294 293 293 291 291 291 293 294 292 292 291 290 291 295 298 296 296 297 297 298 299 298 296
318 318 317 318 318 318 318 317 317 317 317 317 317 316 317 317 314 313 313 313 313 313 314 314 314 313 314 315 306 303 295 286 298 302 320 331 332 330 329 330 325 310 309 306 303 300 302 299 298 294 291 291 291 290 289 290 294 291 290 291 293 294 293 295 294 293 292 291 292 291 292 292 293 293 295 294 292 295 299 300 300 299 299 299 299 298 298 299
318 318 318 319 319 318 317 317 317 317 317 316 316 316 316 316 314 313 313 312 312 314 314 314 314 314 314 313 301 302 295 294 300 305 320 330 331 332 332 327 321 309 307 304 301 302 297 295 296 292 289 289 288 289 292 292 292 291 290 286 290 290 291 293 293 292 291 289 291 294 293 292 293 291 295 294 297 298 299 300 300 300 300 300 297 298 298 298
318 317 318 318 318 318 318 317 317 316 316 317 316 316 316 316 315 313 313 314 314 314 314 313 313 313 313 301 298 296 296 294 302 305 317 324 318 321 317 309 309 306 305 304 301 298 297 295 295 292 292 292 290 290 291 291 290 289 289 288 289 290 292 294 294 294 294 294 295 294 292 293 294 294 294 294 298 299 300 300 299 299 299 298 297 297 298 298
318 318 317 318 318 318 318 318 317 317 317 317 316 316 316 316 315 314 314 314 314 314 313 313 313 312 312 300 295 292 293 299 305 306 310 313 310 310 311 311 307 306 302 302 303 300 300 295 295 295 292 290 291 292 290 290 289 289 290 290 291 293 294 296 295 296 296 296 296 293 293 295 296 296 293 296 298 300 299 297 298 297 296 296 297 297 297 298
319 318 318 318 318 318 318 318 318 317 317 317 316 315 316 316 315 314 315 314 314 314 313 313 313 312 306 300 294 288 297 303 305 305 305 309 309 308 308 309 306 305 304 302 300 299 299 295 298 297 295 293 293 292 290 291 290 291 292 293 293 294 294 296 294 296 296 295 295 292 292 293 295 292 290 298 298 299 295 294 294 293 294 295 296 297 297 297
318 318 318 318 319 318 318 318 318 318 317 317 316 316 316 316 315 316 315 315 314 314 313 312 313 309 302 301 293 289 300 304 305 304 305 305 308 306 307 306 305 305 302 299 301 300 299 297 297 297 297 293 293 291 291 291 293 294 293 294 294 294 294 295 295 294 294 293 291 291 291 293 292 291 293 297 296 293 293 295 295 294 294 295 296 296 297 297
318 318 318 318 318 318 319 319 318 318 318 317 317 317 316 316 316 316 316 315 314 314 313 313 312 309 303 298 294 295 303 305 304 303 305 304 303 308 307 306 305 303 302 299 299 298 300 299 299 298 292 296 290 292 291 292 294 293 292 291 293 292 291 293 292 292 291 291 291 290 290 289 288 289 295 298 298 296 293 293 293 294 294 295 295 296 297 297
319 319 319 318 318 318 318 318 318 318 317 317 317 317 317 317 317 317 316 314 313 313 313 312 310 305 300 292 297 305 306 306 305 305 304 305 303 304 304 304 303 302 302 302 300 300 299 300 300 297 295 295 290 291 293 295 292 292 291 289 290 289 287 290 289 290 290 290 290 289 284 286 286 293 295 295 293 293 291 291 292 293 295 296 296 296 296 297
320 319 319 319 318 318 318 318 318 318 318 317 317 317 317 317 317 317 316 314 313 312 312 311 305 302 299 294 301 303 304 305 304 303 302 304 304 303 304 303 302 302 303 302 299 298 300 299 301 298 296 296 293 295 296 291 289 288 289 287 285 285 283 286 290 288 289 290 287 290 284 287 289 289 293 294 292 291 290 292 295 296 296 296 296 296 296 297
320 320 319 319 318 318 318 318 318 318 318 317 317 317 317 316 317 316 315 313 313 312 310 310 302 298 292 294 304 307 313 304 301 302 301 302 301 302 302 303 301 301 300 301 301 298 300 300 299 296 293 295 294 292 287 285 282 282 284 281 280 282 283 285 290 290 287 290 287 289 283 286 290 291 290 289 289 289 293 295 295 295 295 295 296 296 296 297
321 320 320 319 319 319 318 318 318 318 318 317 317 316 316 316 316 315 314 313 312 311 306 302 300 298 292 289 298 308 301 297 298 302 302 303 301 300 300 300 300 301 302 300 300 300 298 299 294 292 293 293 290 283 284 285 281 279 284 280 282 280 283 285 288 287 289 288 287 288 285 287 290 291 289 289 293 294 294 294 294 294 295 296 296 297 297 297
320 320 320 319 319 318 319 318 318 318 317 317 317 316 316 316 315 314 314 312 308 307 304 298 301 301 287 298 303 296 294 296 300 300 299 302 302 301 302 300 298 298 299 300 299 300 297 297 293 292 286 287 285 283 282 281 280 280 280 281 280 280 282 282 285 285 285 287 285 287 285 287 290 294 295 296 294 293 292 293 294 295 295 296 296 296 296 296
319 320 320 319 318 318 318 318 318 318 317 317 316 315 313 315 315 313 310 307 306 305 303 303 297 293 290 296 292 294 298 297 299 299 298 301 301 302 298 296 295 297 298 297 299 297 295 293 288 288 283 286 286 286 281 279 281 277 279 280 281 279 282 284 283 283 287 288 287 288 287 288 290 293 294 295 294 293 293 293 294 295 295 296 296 295 295 295
314 314 317 318 318 318 318 318 318 318 317 317 316 315 314 314 308 307 304 303 299 294 290 289 291 283 284 289 292 295 299 300 299 300 299 301 300 299 299 298 298 299 292 292 292 294 290 288 287 284 285 284 287 288 286 286 283 283 280 280 280 281 283 284 286 286 287 287 287 287 286 287 290 291 293 295 295 293 294 295 294 295 295 295 294 294 294 294
312 312 313 313 317 318 318 318 318 318 317 314 310 306 304 298 297 295 299 299 296 297 295 294 295 293 292 291 293 298 301 301 299 297 298 299 303 301 298 296 294 293 291 290 289 290 290 287 285 285 287 288 288 290 290 288 284 284 283 282 282 281 284 287 288 288 287 286 286 287 287 287 289 290 292 294 295 294 294 293 294 294 294 294 293 293 293 293
311 311 311 312 313 315 318 318 318 318 317 310 306 302 295 297 292 292 293 295 298 299 297 296 295 294 293 293 293 297 298 297 297 297 300 303 301 302 295 296 292 289 289 288 290 290 290 286 286 289 290 287 288 289 289 287 286 285 284 283 283 281 283 287 287 289 288 286 281 284 286 287 289 291 293 294 294 293 293 293 293 293 293 293 292 292 293 293
309 309 310 311 311 313 314 318 318 318 316 308 305 300 300 301 301 300 296 290 296 298 298 297 298 295 298 296 297 298 296 294 295 297 301 303 300 297 292 295 290 291 285 287 286 285 286 285 289 291 288 285 286 287 287 287 286 286 284 283 282 283 285 288 288 284 285 285 284 284 285 287 289 291 293 293 292 293 294 293 293 293 292 293 292 292 292 290
307 307 308 309 310 311 312 314 318 317 309 305 302 301 300 304 303 301 300 294 290 296 295 295 293 293 295 297 296 297 292 291 291 297 299 301 296 296 293 292 289 284 286 288 286 284 283 286 290 291 287 287 284 284 284 284 284 284 282 281 281 284 282 280 282 283 284 284 285 287 284 286 289 291 292 291 289 290 290 290 291 292 292 292 293 291 290 289
306 306 307 307 309 310 311 313 316 313 307 306 303 302 304 304 303 303 298 289 288 291 293 295 295 293 292 292 296 296 292 291 293 293 303 301 296 293 293 291 288 286 287 288 288 285 285 285 287 289 288 287 286 283 283 282 283 283 283 282 283 283 284 283 283 284 287 287 283 284 285 285 285 285 285 287 286 287 290 289 289 289 289 289 289 287 288 288
305 305 306 307 308 309 310 313 310 307 307 305 303 304 303 304 304 304 296 290 289 287 295 292 294 292 294 298 298 293 292 291 293 296 302 302 295 293 291 290 288 286 287 288 288 286 286 287 285 286 285 286 286 283 283 284 282 281 283 285 285 285 283 283 284 283 281 281 282 284 280 277 279 281 284 288 291 292 293 291 290 290 288 285 285 287 287 288
304 305 306 306 307 308 311 308 305 306 305 302 304 304 304 304 304 303 297 285 281 287 290 286 296 290 299 291 293 292 293 287 293 296 302 302 302 295 291 288 289 285 286 285 286 287 287 287 288 286 284 284 284 285 286 286 283 280 282 286 287 286 284 283 283 282 277 276 281 284 276 277 281 286 288 289 289 289 291 289 289 289 289 285 285 286 286 287
303 304 305 306 307 308 304 299 306 306 301 302 304 304 303 304 304 302 291 282 279 288 285 289 291 289 296 291 292 293 285 287 295 297 300 302 298 298 290 287 286 285 287 284 281 282 285 286 287 286 283 282 281 282 286 287 283 281 282 284 285 284 283 283 282 281 280 280 282 283 281 278 280 282 288 288 285 286 287 289 290 290 286 285 285 285 285 286
302 303 304 305 306 306 302 303 303 302 302 302 304 303 304 303 302 300 289 277 277 289 284 286 290 295 292 292 293 287 287 290 286 292 297 298 299 295 291 285 288 287 286 284 279 283 286 283 284 284 284 282 283 285 286 288 284 281 283 283 282 284 283 282 281 280 279 279 278 279 279 276 277 280 283 284 284 285 286 287 287 288 287 285 285 286 286 286
302 302 303 304 305 306 308 304 302 302 302 303 303 303 302 302 299 292 284 274 286 280 300 289 300 293 288 291 288 286 287 290 287 293 296 298 298 293 288 286 287 286 287 287 284 283 283 285 286 287 284 283 285 283 286 287 284 284 282 282 281 280 280 282 279 280 280 278 277 278 280 273 279 280 282 280 282 284 284 286 286 286 285 283 285 285 286 286
301 302 303 304 303 302 302 304 302 303 304 304 303 302 302 299 294 285 280 273 290 280 289 291 290 284 286 285 284 287 285 287 292 295 294 292 294 295 293 291 287 285 285 287 285 285 285 289 287 286 285 286 286 285 285 288 287 284 284 285 280 279 278 277 279 281 281 274 279 281 281 280 275 280 280 282 283 283 283 283 283 283 283 284 284 284 285 286
300 301 301 303 296 299 299 298 301 303 303 303 303 302 299 295 285 282 275 281 286 285 287 288 284 287 284 282 281 284 284 287 291 293 290 293 292 290 290 288 288 283 283 282 285 287 288 287 286 285 289 287 287 285 284 286 286 286 281 279 280 282 276 274 272 278 277 275 279 278 280 281 274 277 279 282 283 283 285 285 284 284 284 284 284 285 285 284
300 301 301 300 300 299 294 295 301 303 303 303 302 297 294 282 286 278 278 290 278 280 280 282 284 283 283 283 281 282 284 288 291 290 289 290 289 289 289 282 285 276 278 281 279 282 284 286 289 287 289 291 287 285 285 285 286 285 283 282 276 271 269 265 269 273 274 274 277 276 280 276 279 283 285 288 289 289 286 286 287 286 285 284 285 285 285 284
300 300 301 301 300 294 298 302 302 302 303 302 299 296 286 281 275 284 282 283 276 285 283 284 283 282 283 283 281 283 284 284 289 289 289 289 288 289 289 286 285 281 274 279 280 279 280 282 285 288 287 289 289 283 280 280 284 283 282 281 276 271 268 266 267 266 268 274 277 277 278 276 280 283 289 289 291 292 292 291 289 288 288 286 286 286 285 285
299 300 294 296 297 296 299 301 302 302 300 299 295 289 285 279 278 290 284 287 282 283 284 282 283 283 282 283 280 283 281 284 289 288 288 286 287 285 288 289 286 283 279 279 277 278 271 278 280 285 283 288 290 288 286 282 283 284 283 284 280 276 271 267 268 268 271 269 274 275 273 273 276 282 285 286 289 289 288 288 287 287 287 286 284 283 284 285
300 298 293 292 293 295 297 299 301 303 300 296 291 285 279 278 284 282 283 284 284 282 282 282 283 281 281 282 280 283 283 282 289 287 286 286 284 285 285 286 289 285 280 278 280 276 280 281 279 288 284 288 288 289 284 283 282 283 282 282 276 278 279 274 273 268 267 268 268 271 275 276 281 283 287 289 289 288 289 287 286 287 287 286 285 286 287 288
299 292 293 290 290 292 295 298 301 302 297 292 285 281 280 284 281 285 281 288 286 285 284 282 281 280 280 279 279 282 286 282 284 286 285 286 287 285 287 285 287 289 284 282 281 274 279 276 281 285 285 288 288 287 286 287 277 281 283 281 283 282 283 275 272 270 269 268 273 270 276 280 283 287 289 287 286 288 287 287 285 286 287 285 287 288 287 288
286 289 286 287 289 291 294 297 301 299 295 289 284 279 285 286 289 285 289 286 286 286 283 282 279 282 277 279 280 280 282 282 282 285 281 287 284 288 286 286 288 289 290 288 281 283 279 278 283 284 282 285 282 285 287 286 285 283 278 282 283 283 280 277 270 268 265 267 271 271 273 278 278 278 281 281 283 286 284 285 286 285 284 285 288 287 287 288
288 287 289 288 290 291 295 297 299 296 291 285 281 286 287 284 290 289 286 286 287 287 284 283 280 287 274 279 278 280 281 283 280 283 279 285 279 290 287 284 288 290 291 291 284 281 284 278 281 281 281 284 283 285 284 286 286 284 282 281 284 275 275 274 269 269 267 266 269 272 273 275 278 282 284 285 286 288 290 286 283 284 283 285 287 287 287 287
286 285 280 285 288 290 292 298 297 292 286 282 281 282 287 286 288 286 290 288 286 286 284 283 282 280 282 280 280 281 283 281 284 281 277 277 280 287 286 289 284 290 291 291 285 284 282 278 278 282 282 283 283 283 278 282 284 282 285 283 279 278 271 271 276 269 272 267 268 271 274 278 282 281 280 283 284 286 288 284 284 284 286 287 288 289 289 288
285 282 278 287 290 292 297 298 291 288 283 279 282 283 287 286 289 291 288 288 285 287 284 283 283 282 280 279 281 279 282 283 283 282 283 281 285 287 284 289 284 285 289 290 287 286 281 282 274 280 279 282 279 283 280 284 281 281 281 278 280 278 279 277 273 274 274 265 268 271 274 279 285 282 283 285 285 286 286 286 286 286 286 286 287 289 289 289
289 280 276 289 291 295 296 291 284 281 281 284 285 284 286 284 286 284 287 289 289 292 288 286 285 284 285 283 282 281 281 281 282 281 282 280 282 281 285 288 285 283 287 285 287 285 278 279 280 279 276 279 281 286 286 286 287 285 284 282 284 280 275 273 274 276 271 275 269 269 274 281 287 284 287 285 284 284 284 285 287 286 286 286 287 287 287 288
285 275 278 290 290 295 289 279 280 283 282 280 281 285 283 292 287 288 287 286 288 287 290 288 287 286 285 285 286 282 281 280 282 282 282 283 285 286 286 287 286 289 288 284 287 290 286 280 282 277 281 282 284 283 282 284 284 283 285 283 286 284 283 277 274 277 268 273 271 270 272 280 290 285 285 284 283 283 283 283 285 286 287 285 285 285 286 285
283 278 288 289 292 292 283 275 280 280 278 282 287 285 287 286 283 283 284 283 284 287 287 286 287 286 287 287 286 284 283 282 283 282 284 285 286 289 284 288 287 287 287 284 287 284 292 281 277 281 284 281 282 281 282 281 283 283 282 281 282 282 284 283 282 275 276 273 275 274 274 280 290 283 282 284 283 281 280 280 286 286 285 284 283 283 285 285
284 281 284 287 293 292 281 271 273 274 277 279 281 281 286 284 284 283 284 285 285 282 284 284 287 289 285 287 285 285 287 282 286 287 284 286 284 287 286 287 290 288 289 285 286 288 281 282 283 278 274 273 277 280 279 277 279 281 283 285 284 285 284 282 277 276 276 277 280 276 273 280 288 288 282 283 286 285 285 283 280 283 284 283 283 283 284 285
281 281 281 285 292 289 278 280 277 274 275 275 276 276 278 281 285 285 285 284 288 286 286 285 287 285 284 286 283 284 284 285 282 287 287 285 286 288 286 287 289 289 291 289 292 290 286 284 283 276 274 273 273 274 276 278 279 280 278 282 284 283 282 280 278 280 277 281 282 278 278 285 289 290 285 283 282 284 283 282 280 281 283 284 284 283 283 283
278 274 280 279 283 285 282 283 280 279 277 275 273 275 277 276 280 282 284 283 287 287 286 286 287 287 284 284 282 283 283 285 283 279 284 281 285 285 286 283 287 287 289 291 289 282 279 282 286 284 281 278 281 283 283 281 280 278 280 284 283 284 284 284 283 281 278 282 281 282 283 283 285 288 289 289 284 284 286 285 285 285 284 283 282 283 283 284
281 277 277 272 277 279 278 280 276 277 274 281 274 277 275 276 277 279 282 278 283 284 284 285 284 283 282 284 282 282 284 283 284 284 283 284 286 286 287 286 286 288 291 289 288 285 283 281 283 284 284 285 286 285 286 283 280 282 281 282 284 284 284 282 281 279 285 282 277 284 285 284 285 287 289 289 290 290 288 286 287 288 289 288 284 283 286 283
276 279 284 281 279 272 276 274 278 276 277 279 276 281 277 277 277 275 280 280 281 279 276 280 283 283 283 281 281 278 280 280 281 279 283 283 283 284 283 285 285 288 289 285 287 286 283 280 284 284 283 285 285 285 286 286 284 283 283 283 282 284 283 281 282 285 285 281 279 285 286 284 286 288 290 291 292 292 291 290 289 291 291 286 283 284 283 283
280 276 277 279 277 276 280 277 279 276 275 276 276 279 276 276 276 279 279 278 280 278 281 271 277 279 278 280 280 277 278 275 275 281 279 280 280 279 278 282 285 286 285 285 285 284 284 281 284 284 282 283 284 285 285 284 284 284 284 283 283 283 283 283 283 285 285 284 286 286 286 286 288 289 291 292 294 294 291 289 289 288 288 287 286 285 285 284
277 278 276 277 273 276 278 278 277 275 272 276 273 274 277 277 276 278 279 278 276 278 283 278 279 279 278 278 277 275 277 278 276 274 278 280 277 280 279 281 280 284 283 282 284 282 283 278 285 283 280 280 283 285 285 284 283 282 284 284 284 284 283 284 284 284 285 284 285 285 284 285 290 292 292 294 294 288 286 287 289 289 289 288 287 286 285 285
283 284 279 276 275 273 275 276 276 275 273 274 273 272 276 275 276 279 278 282 279 277 279 277 280 277 279 277 277 276 279 279 280 279 280 280 275 281 279 277 285 278 280 280 282 282 283 278 284 280 277 276 281 281 282 283 283 282 282 283 283 283 281 283 282 284 284 282 284 284 282 283 289 292 293 293 292 291 290 289 287 288 288 287 287 287 286 285
278 280 277 274 274 279 274 273 276 276 271 275 275 273 275 273 277 277 275 280 281 281 281 280 278 278 275 276 275 277 281 282 281 282 282 282 283 282 283 282 282 279 278 279 281 279 279 278 276 276 273 273 278 279 278 279 278 275 278 283 284 284 285 286 286 286 286 286 283 281 282 288 290 291 290 290 291 291 292 292 290 286 287 288 287 287 288 286
Wind_Speed
6 7 8 8 7 7 7 4 3 4 6 7 7 7 5 3 3 7 8 9 11 11 12 13 13 13 14 15 16 17 14 7 10 4 3 12 7 10 9 2 8 11 7 4 3 1 2 2 1 4 2 1 2 1 1 0 1 2 2 2 5 5 3 6 7 8 2 2 4 2 0 4 14 10 6 4 6 7 11 11 13 8 10 13 15 10 8 7
6 7 8 8 9 9 8 4 4 2 3 6 7 7 6 6 5 5 8 10 11 12 12 12 13 12 14 15 16 16 9 5 9 9 16 10 5 9 10 5 10 13 9 4 5 3 2 1 1 3 2 0 1 1 1 1 1 3 1 2 9 5 7 6 4 6 2 9 6 5 4 4 12 6 3 9 16 13 15 17 9 13 14 13 14 14 10 10
6 6 6 8 9 9 9 6 5 4 3 5 6 6 7 7 5 4 8 10 12 11 11 12 13 13 14 16 16 13 8 6 3 7 8 4 12 14 13 10 11 14 8 4 4 7 5 2 3 3 2 0 2 2 2 1 3 4 5 7 9 5 4 5 3 6 5 7 13 13 9 4 10 4 1 7 14 13 18 16 18 12 13 12 8 6 8 6
6 6 6 7 8 9 10 8 8 7 5 5 6 6 6 6 6 6 7 10 11 10 11 13 14 14 14 15 16 5 4 3 2 2 2 10 11 7 12 14 12 10 6 5 6 5 5 7 5 3 1 0 2 1 1 3 2 2 2 5 5 3 4 5 7 10 10 6 10 9 9 11 8 6 1 6 11 15 18 17 14 18 18 16 13 6 4 7
6 6 7 7 8 9 10 7 6 5 5 6 6 7 7 7 4 4 6 9 9 9 11 12 13 13 14 14 13 5 1 3 1 1 4 11 6 3 8 13 10 5 5 8 9 5 4 3 3 2 2 2 1 1 3 2 2 2 9 6 5 4 7 11 6 7 6 5 6 6 10 16 4 2 5 5 10 15 15 18 5 10 12 12 15 16 7 7
7 7 6 5 7 8 9 8 7 6 7 8 8 7 6 6 4 5 5 5 7 8 9 10 13 13 14 15 4 2 0 2 1 2 9 9 8 8 9 10 12 8 9 5 4 4 6 2 3 0 0 1 2 4 2 2 1 7 4 6 6 8 11 5 4 3 1 5 9 10 6 8 12 12 10 11 19 21 23 19 19 14 12 14 12 12 14 16
8 6 4 4 5 7 9 8 7 7 8 8 9 8 7 7 5 6 3 4 5 6 8 11 11 13 14 9 1 3 2 7 3 3 12 9 7 8 11 12 10 7 5 5 4 3 2 3 2 2 2 1 4 4 6 1 0 4 8 1 8 5 11 11 12 8 8 8 15 8 5 10 17 20 3 11 22 20 21 19 13 14 15 13 11 14 15 16
8 8 6 5 6 7 7 5 5 7 8 8 8 8 7 8 7 3 4 6 6 7 9 10 11 12 12 4 3 2 1 8 8 5 12 6 7 9 10 6 7 5 5 6 6 4 4 4 4 2 1 5 3 4 1 1 1 5 8 3 5 3 7 9 10 10 10 13 14 10 11 19 13 15 7 24 27 22 18 11 13 14 12 12 11 15 15 14
10 8 8 7 7 8 8 7 8 9 7 6 7 8 7 8 7 7 5 5 7 7 8 9 10 10 7 4 2 4 7 4 3 5 9 5 4 6 7 3 3 7 4 3 1 6 5 4 2 5 6 2 1 2 2 0 8 3 5 3 5 7 10 12 17 17 14 10 7 9 16 16 15 10 16 29 29 24 8 7 11 10 9 11 13 14 12 13
10 9 7 6 6 7 8 8 8 8 7 7 8 8 9 8 8 7 8 7 7 7 7 9 10 8 5 4 2 0 5 5 1 5 9 7 4 4 7 5 7 7 6 1 5 5 4 5 5 5 3 1 3 4 1 3 6 1 6 7 10 12 12 9 11 20 11 10 12 12 20 16 7 6 11 13 13 12 3 6 6 4 8 11 10 11 10 11
9 9 9 7 7 7 7 9 9 8 9 9 8 9 9 10 9 9 8 7 6 7 7 8 9 4 3 3 0 7 3 4 0 5 9 8 6 2 2 5 5 5 6 2 3 5 3 5 4 3 1 4 3 3 2 4 1 6 5 11 12 12 10 13 16 18 8 9 3 7 15 11 4 5 18 24 4 4 5 11 10 7 8 10 11 12 11 11
10 9 8 8 7 8 8 9 9 9 10 10 10 9 10 11 11 10 10 7 6 6 7 9 4 1 1 3 7 9 1 1 0 3 7 6 3 1 2 2 2 6 6 4 4 3 5 4 6 3 2 1 2 1 3 3 1 3 4 14 17 5 12 8 11 4 5 5 2 3 13 11 8 11 25 20 12 9 6 8 10 10 10 10 12 12 11 12
10 9 9 9 9 8 9 9 10 11 10 11 11 10 10 11 11 10 9 6 4 4 7 7 5 2 2 9 12 17 11 8 10 12 7 1 2 1 1 0 2 3 4 3 1 3 4 7 3 2 2 2 1 1 1 1 3 4 1 2 18 8 8 10 1 1 3 5 2 4 10 9 12 19 16 9 4 5 6 8 9 9 12 11 11 12 13 10
11 10 9 10 9 9 10 9 10 10 10 11 10 10 10 10 11 10 6 6 4 5 5 6 1 1 1 9 5 1 5 5 6 9 6 1 2 1 2 3 3 2 0 3 1 3 5 2 4 2 1 2 3 2 5 4 2 4 4 2 6 9 7 4 0 1 6 2 2 1 3 21 7 10 12 11 5 2 6 8 13 16 14 12 12 11 12 14
12 11 11 11 10 10 10 10 10 10 11 10 10 9 9 9 10 7 7 5 5 5 2 2 2 1 3 10 5 8 5 3 4 11 2 3 4 1 0 1 4 3 2 4 3 1 4 6 4 1 2 0 1 2 4 3 2 2 4 5 1 4 7 5 8 2 3 2 4 3 7 14 25 6 9 5 3 2 12 16 16 15 15 14 14 12 11 12
12 12 13 11 11 11 10 10 10 10 10 9 9 8 8 9 8 7 6 6 4 3 2 1 1 1 5 11 1 2 1 1 3 5 4 4 5 3 3 5 3 4 4 3 3 3 3 4 2 2 0 1 1 1 3 6 4 2 4 5 9 2 8 13 1 1 1 1 3 2 8 13 22 4 7 3 5 14 15 17 16 16 16 14 13 11 10 12
12 12 13 11 12 11 10 11 9 9 9 8 6 7 8 8 6 7 8 2 3 2 1 1 1 0 3 2 3 3 3 3 2 2 1 1 3 6 6 4 1 4 4 4 2 2 3 2 1 1 3 2 3 5 3 4 8 5 1 5 3 4 6 7 4 1 1 4 3 3 5 13 22 33 27 14 7 11 13 17 17 15 14 14 13 11 10 9
8 14 12 12 12 11 12 10 10 9 8 6 5 4 4 6 6 6 2 3 1 1 2 1 1 3 10 2 2 3 0 3 3 1 2 0 3 6 5 3 1 5 5 2 2 3 2 1 3 4 3 1 3 4 5 9 8 2 2 3 8 3 7 13 10 2 4 2 7 12 15 18 24 26 23 19 6 9 16 16 15 16 15 14 12 11 10 9
17 18 8 12 12 12 12 11 11 10 8 7 4 3 3 3 3 1 2 1 1 2 1 2 4 4 3 1 5 5 1 2 1 1 1 4 1 3 4 3 5 9 1 3 2 3 1 3 3 1 8 6 11 12 13 13 1 1 2 4 4 8 7 10 10 3 1 8 9 12 16 17 22 23 22 20 12 14 20 17 13 14 13 12 11 10 9 8
16 15 16 16 9 13 13 13 11 12 10 4 3 2 1 2 1 2 1 2 7 11 3 4 10 3 9 5 1 1 0 1 2 2 2 2 6 5 3 2 3 5 6 6 1 3 1 6 7 11 15 10 7 14 15 6 2 1 2 4 8 7 12 15 15 4 0 7 9 16 15 15 19 23 23 22 18 18 19 15 14 13 12 11 10 10 9 8
16 15 16 15 16 15 12 13 13 12 12 6 4 2 2 4 1 4 2 10 13 11 14 11 14 11 9 2 1 2 0 1 1 2 5 2 1 9 3 3 4 3 4 4 6 1 3 7 12 14 13 3 10 10 7 7 4 7 8 7 11 3 15 13 11 6 4 5 4 5 15 18 20 25 23 19 17 22 19 14 13 14 10 9 9 11 10 9
15 16 16 15 17 15 18 11 13 14 13 7 6 4 2 1 1 2 1 8 5 16 13 18 9 10 10 10 1 2 3 2 3 2 2 5 5 9 4 6 7 11 3 4 2 1 6 13 11 15 4 2 2 5 7 8 10 8 9 6 6 11 12 15 12 2 0 2 9 3 15 19 22 26 25 18 16 16 13 11 13 9 10 10 8 8 9 8
13 15 15 16 16 18 16 18 14 16 7 6 6 2 2 1 1 1 0 5 11 6 13 13 10 18 17 8 4 4 7 9 9 4 7 5 4 6 7 7 7 3 4 6 11 5 7 9 15 11 3 4 1 2 5 5 5 8 5 3 12 5 2 9 2 2 2 2 12 14 17 17 17 22 18 13 6 6 6 6 9 9 10 11 10 6 7 8
11 12 13 14 16 16 19 18 12 11 8 9 6 6 2 5 3 1 2 5 7 4 10 9 12 5 12 5 4 11 12 5 5 8 6 9 11 3 4 7 7 5 10 13 14 12 13 1 3 5 6 5 6 4 4 5 10 6 8 7 10 11 10 8 6 8 9 6 2 9 14 12 7 10 7 6 3 4 7 5 6 7 8 7 7 7 6 9
11 11 12 13 14 17 18 12 2 4 5 5 3 3 6 5 3 4 2 6 4 7 0 1 5 4 3 3 5 9 5 3 6 1 6 10 8 4 4 1 4 10 7 9 8 10 12 4 3 4 4 5 6 6 9 8 12 1 7 13 16 10 8 8 8 8 7 8 3 8 11 5 5 5 10 8 9 16 13 12 12 7 7 4 5 7 5 5
11 13 14 14 15 17 13 4 1 5 9 6 3 7 6 5 3 2 1 3 10 2 2 4 4 2 5 0 3 5 7 4 4 6 6 7 2 4 3 2 3 7 6 4 7 5 6 3 4 5 5 4 6 9 8 10 8 2 7 14 15 12 10 7 10 4 4 2 1 6 2 16 2 8 12 12 10 16 13 11 13 9 7 5 6 4 4 5
12 13 14 14 14 15 3 1 4 2 3 2 4 8 7 6 3 1 3 3 8 4 6 1 2 1 3 2 6 5 2 3 1 2 7 4 9 0 5 5 2 1 3 2 2 8 3 5 8 4 4 6 3 10 7 11 5 7 2 8 9 7 6 7 5 6 7 2 5 2 5 6 20 4 13 13 9 11 11 11 11 9 5 6 5 5 4 5
12 13 13 14 13 9 2 1 2 4 2 2 5 7 7 6 4 1 2 6 7 4 2 2 1 2 3 2 5 3 1 0 1 0 0 2 1 1 2 5 9 8 4 5 12 1 7 3 5 5 5 6 11 7 8 14 8 5 0 4 3 7 7 3 3 5 3 5 9 5 3 1 10 5 5 7 11 6 8 9 8 9 6 6 5 6 5 4
11 12 13 13 14 7 1 1 3 4 2 1 6 6 6 6 1 2 2 6 2 3 2 5 1 3 2 3 2 0 1 1 1 1 1 2 2 2 4 4 4 4 4 9 12 1 1 3 7 9 8 11 5 3 10 12 7 4 3 4 4 4 2 3 2 1 3 2 11 6 5 3 17 2 3 2 2 8 6 7 8 7 6 4 4 5 5 4
10 11 12 13 7 3 4 1 0 4 1 5 8 8 5 4 1 2 2 8 1 2 3 1 3 3 3 6 2 1 2 2 2 0 2 3 1 3 1 2 4 3 4 4 7 4 0 2 5 5 9 4 4 3 6 10 7 3 4 1 2 4 2 2 3 1 2 4 15 8 13 9 10 3 6 4 3 2 3 5 4 5 4 5 6 7 5 4
10 11 11 10 3 3 3 1 4 3 3 3 8 7 4 2 3 3 12 6 5 2 3 1 2 5 6 6 4 0 2 0 1 4 3 1 1 3 1 3 3 3 1 3 10 8 7 3 2 4 3 2 3 2 2 2 1 2 1 2 1 3 4 2 3 1 2 9 1 2 7 10 10 6 7 5 5 4 3 5 5 4 5 7 5 4 5 5
9 10 11 5 4 3 1 2 4 2 0 4 10 7 4 4 3 9 8 2 1 1 2 1 3 1 1 3 3 3 6 2 2 4 6 7 7 9 11 8 6 3 4 8 7 2 9 14 9 3 4 10 3 2 0 2 2 4 3 2 3 4 6 4 3 1 6 9 2 2 6 1 18 12 11 20 18 12 7 9 9 6 5 6 6 8 6 4
9 10 9 3 5 2 2 2 3 1 1 5 2 7 4 4 10 12 8 1 4 1 1 5 1 3 1 2 2 1 2 4 1 2 3 2 8 10 5 5 4 4 4 1 6 2 8 2 6 10 2 6 8 7 2 1 7 7 7 6 6 1 1 4 5 2 7 8 3 1 3 7 4 7 15 21 22 16 13 10 9 9 10 7 7 6 6 6
8 6 3 3 2 2 4 5 3 1 2 3 4 4 2 8 16 8 8 12 7 2 4 3 2 2 3 6 2 4 0 3 7 4 4 4 7 7 9 11 6 2 3 1 3 7 2 5 6 11 6 7 13 15 11 6 10 12 3 9 7 7 6 4 6 6 7 4 2 2 3 8 3 4 1 6 8 8 7 7 5 5 7 6 6 5 6 7
7 3 2 2 2 3 4 4 2 2 2 3 6 7 10 14 13 13 9 5 3 2 2 2 3 3 4 2 2 3 3 1 5 3 5 6 8 7 9 11 11 4 1 2 5 3 11 9 4 9 0 10 14 9 8 6 4 3 3 4 2 9 5 5 3 3 2 3 4 2 7 4 6 4 10 9 12 12 10 7 6 11 7 7 7 8 8 7
5 4 0 3 1 2 3 2 2 3 4 5 5 9 16 14 12 5 5 4 1 5 1 2 2 1 5 2 2 4 3 1 2 4 2 9 5 3 6 0 12 19 11 10 5 4 0 6 1 4 4 10 10 6 5 9 5 5 8 9 7 2 6 2 3 1 2 1 12 3 7 9 7 12 12 9 5 9 7 8 8 11 10 6 9 9 7 7
2 2 4 2 1 2 3 2 4 4 5 5 9 12 13 10 13 1 3 2 2 7 4 10 5 7 4 5 3 3 4 4 3 5 5 2 6 9 5 8 4 10 17 11 4 4 6 6 0 5 3 4 0 2 4 2 5 7 4 6 3 2 4 4 4 3 1 4 8 2 5 8 4 13 2 2 5 8 5 9 8 6 3 6 9 6 6 8
1 1 3 5 7 4 5 4 6 5 5 6 13 16 5 13 6 5 1 1 1 1 4 9 4 10 3 4 4 6 3 8 4 6 4 5 6 5 7 2 9 15 21 10 1 4 2 6 4 3 2 1 1 4 1 0 0 7 7 3 7 4 4 1 5 4 4 5 6 4 4 6 8 14 5 8 7 8 13 4 2 6 5 8 8 8 8 9
2 1 4 5 3 1 3 6 5 6 5 9 9 12 12 14 7 5 6 0 1 2 1 4 5 2 6 6 3 1 7 8 7 8 2 3 3 7 12 9 5 15 12 13 6 5 2 3 4 0 3 1 1 2 8 7 2 0 0 1 0 3 2 5 7 3 3 6 2 6 4 12 9 6 3 5 8 8 10 7 5 7 8 8 8 8 10 11
2 2 4 2 4 0 5 6 5 5 7 12 14 15 1 10 11 9 1 2 4 5 5 5 2 5 1 6 2 4 5 6 7 7 6 4 9 2 3 6 3 3 9 10 9 1 6 0 8 1 3 1 4 6 8 13 12 5 2 3 0 1 3 4 2 4 5 4 6 6 12 13 12 6 7 8 7 7 6 8 6 6 8 7 7 8 9 10
1 4 5 1 2 3 5 5 5 10 9 7 9 10 11 7 4 3 5 4 4 5 6 6 3 6 3 3 5 4 1 5 5 5 5 4 5 7 5 8 6 3 4 3 8 5 1 2 11 2 1 6 8 6 11 15 16 13 14 14 17 11 4 5 12 2 3 7 7 7 16 12 11 6 7 7 7 5 7 5 7 7 7 7 7 7 7 9
5 4 5 1 1 7 7 6 5 3 5 10 15 8 6 7 7 11 6 1 3 2 2 5 8 8 6 9 4 1 3 3 6 5 4 10 5 10 0 6 6 10 10 8 11 12 9 1 5 8 10 12 10 4 1 4 4 4 9 10 12 10 7 7 13 11 2 3 1 3 6 18 15 9 6 6 4 6 5 5 6 7 9 6 4 6 6 5
6 5 0 4 3 8 6 2 4 6 9 9 9 13 6 7 2 1 4 2 4 2 3 3 5 7 9 9 8 8 5 8 7 7 5 7 10 10 5 12 8 4 2 2 1 2 5 3 3 11 8 5 2 2 0 0 4 5 5 1 5 12 18 17 11 3 6 4 6 7 11 14 17 4 5 6 5 4 4 4 8 9 7 6 5 5 6 6
4 4 4 5 3 5 7 8 7 9 8 8 11 13 10 5 5 6 3 2 1 3 1 1 2 2 4 3 1 9 3 12 9 16 10 6 7 8 9 8 11 7 8 6 5 5 2 5 8 10 6 5 3 1 3 1 1 4 7 11 12 11 10 5 4 1 4 9 11 9 17 12 15 6 2 4 8 9 9 6 5 7 8 6 5 5 6 6
2 2 2 1 3 7 8 6 8 4 6 9 8 13 11 11 6 11 10 10 6 2 3 3 2 4 3 3 4 4 4 12 7 5 5 0 4 5 8 4 8 9 9 3 3 2 12 6 9 12 12 14 14 13 14 11 12 5 1 5 10 13 13 5 10 7 14 8 15 13 12 11 17 15 5 2 5 6 6 7 4 7 8 7 5 4 5 5
4 5 4 3 2 6 6 3 1 5 6 7 7 10 8 13 10 11 8 10 6 7 9 9 11 8 7 9 9 7 7 3 10 2 3 0 1 2 2 3 1 3 11 15 8 3 3 3 13 16 16 17 17 14 2 7 6 8 10 16 14 13 15 14 9 12 16 14 17 16 14 16 19 20 22 16 4 9 9 6 5 5 5 6 5 5 4 3
1 7 5 5 1 6 4 6 6 5 5 4 8 1 12 12 9 8 6 9 3 8 4 7 3 5 3 6 7 9 6 8 7 9 10 11 4 4 7 9 8 6 12 9 3 2 2 7 10 14 21 19 15 14 9 6 6 10 15 16 19 18 17 19 16 19 15 14 19 13 18 20 20 18 21 23 18 15 12 7 6 7 8 6 3 1 1 1
6 5 7 7 8 6 9 9 8 8 8 6 7 3 12 9 5 7 2 5 2 3 3 1 7 8 11 10 9 10 6 10 8 10 10 7 9 6 9 2 5 5 6 4 1 4 5 8 9 10 19 15 15 17 19 19 13 9 13 14 17 18 17 20 23 24 21 19 21 14 19 21 17 16 21 24 25 25 11 12 9 12 11 4 2 3 4 5
3 2 3 3 11 5 15 14 16 14 16 15 4 9 11 11 13 7 2 5 3 4 1 1 2 3 6 5 2 7 6 10 9 4 3 7 7 8 6 8 5 5 7 3 4 2 3 8 9 13 19 17 18 16 15 18 18 18 17 13 15 16 21 22 23 24 27 26 21 19 19 23 17 18 21 26 26 22 7 5 6 8 7 8 8 9 10 10
6 5 6 1 3 2 2 7 9 12 11 14 10 12 9 13 14 10 8 3 6 4 5 12 9 3 5 6 5 2 4 7 7 7 9 11 10 3 7 6 10 5 6 4 6 3 5 7 10 14 14 14 13 14 15 18 17 21 21 19 16 14 18 22 23 23 23 25 23 22 22 23 16 18 22 23 22 5 2 4 10 9 10 11 11 12 11 10
3 4 5 4 8 4 3 6 8 11 9 9 12 9 12 15 14 12 11 5 8 4 3 9 3 3 1 4 4 3 6 7 7 9 10 9 8 7 8 4 11 10 13 9 3 4 5 6 6 8 11 12 11 11 14 14 19 21 21 20 22 22 22 17 18 16 17 21 19 23 22 20 17 22 21 19 16 17 18 12 8 8 8 8 11 12 11 10
3 2 3 4 6 8 10 3 7 8 10 10 12 12 10 13 15 7 8 7 10 9 6 3 3 2 4 7 8 7 2 1 6 8 7 7 8 8 9 11 7 8 4 10 7 10 6 8 8 9 15 17 14 19 17 16 15 15 16 18 25 27 25 23 21 19 21 21 22 21 20 17 19 15 16 18 19 22 22 19 13 7 9 10 11 12 12 10
Wind_Direction
248 255 259 254 236 238 252 253 248 297 296 291 298 294 302 347 318 315 323 327 333 335 330 334 335 334 333 334 333 328 345 344 320 325 323 247 194 221 194 100 139 168 137 93 77 71 331 22 110 343 32 33 295 21 270 72 128 73 180 140 256 204 191 216 202 196 204 289 267 305 196 339 304 310 290 326 257 238 271 266 264 253 246 247 257 263 263 278
258 255 258 265 263 266 277 264 246 254 284 280 299 293 294 292 303 307 318 324 331 327 335 335 334 336 335 334 333 335 357 327 300 284 239 244 206 204 214 167 142 153 112 104 141 147 143 313 52 54 70 171 339 210 10 253 114 160 116 134 246 187 233 161 213 245 295 272 281 280 284 264 270 308 309 326 298 298 297 281 260 262 263 251 257 258 265 265
256 265 256 250 253 260 260 249 243 268 265 271 277 294 294 292 296 284 311 324 325 326 331 334 335 335 332 333 329 349 358 314 299 271 272 287 256 244 229 191 150 151 153 152 187 149 162 191 170 101 28 65 2 222 34 260 141 232 138 233 241 217 249 214 209 252 209 285 297 300 293 282 273 294 346 269 290 296 282 284 301 284 268 271 251 243 255 255
264 275 277 258 258 260 267 253 257 268 264 287 286 291 297 297 301 299 313 323 324 330 331 334 329 330 327 330 336 359 24 289 302 251 287 300 313 264 214 206 158 150 92 78 148 126 114 87 76 88 86 111 292 41 191 242 138 272 152 221 241 245 268 249 216 246 261 273 280 284 298 293 279 238 208 277 308 284 274 264 241 267 278 284 286 269 228 251
259 275 277 253 240 249 254 261 272 269 266 278 293 289 283 287 293 327 321 319 326 328 332 335 335 333 333 330 341 59 61 24 270 235 282 333 6 23 181 189 148 130 120 128 85 73 86 107 100 48 86 246 346 17 244 245 185 107 218 243 253 273 274 262 238 248 252 260 285 284 303 282 319 230 234 224 244 271 269 276 239 226 264 277 290 297 284 250
260 264 264 262 253 260 266 259 262 269 274 274 283 286 274 272 281 298 336 340 323 317 326 332 338 338 333 334 4 69 98 343 292 298 330 0 40 76 123 140 121 115 113 89 108 123 109 43 89 113 2 96 214 182 266 185 125 254 248 257 242 245 260 295 282 269 243 288 274 284 267 314 288 284 266 257 245 253 260 261 275 275 262 267 279 278 282 282
249 255 256 240 234 237 252 263 272 281 275 278 280 283 278 266 253 304 309 326 286 311 323 338 340 343 341 351 27 66 120 268 340 285 347 13 59 78 95 110 118 114 104 105 113 129 111 98 125 205 108 15 274 199 259 316 95 226 258 297 283 276 263 281 281 284 277 265 268 260 310 280 285 290 280 254 258 244 260 268 271 272 275 273 267 267 262 261
247 244 235 232 241 246 261 265 271 273 262 257 264 275 278 257 258 256 276 266 293 303 333 341 341 348 356 6 27 349 76 249 259 333 329 344 48 88 92 85 114 115 119 147 141 123 123 134 175 134 193 191 225 162 251 313 175 235 264 228 274 308 265 289 282 277 267 258 264 270 265 259 259 262 331 275 270 271 254 266 272 265 269 272 263 262 262 262
241 242 245 232 228 241 251 253 252 255 262 259 261 270 261 248 253 268 269 287 299 307 327 343 343 346 42 80 110 345 261 242 185 334 8 36 81 99 114 109 133 130 130 90 105 155 133 239 193 178 248 193 205 225 294 179 288 221 244 307 276 272 285 282 292 280 272 276 249 272 256 262 259 292 268 257 269 264 278 250 245 260 268 262 259 258 256 258
242 241 245 246 239 236 238 249 255 252 249 252 266 269 258 253 256 267 278 288 298 307 326 340 347 7 19 23 344 350 263 144 112 24 22 17 6 71 49 133 133 122 121 165 95 109 171 210 178 209 141 190 153 224 159 150 242 170 290 284 283 280 284 276 263 281 283 275 276 260 270 267 263 126 281 265 234 266 263 252 259 244 251 257 260 262 260 257
243 244 242 237 237 235 240 248 248 246 247 249 256 256 256 255 255 257 272 281 291 304 329 333 354 40 26 44 331 217 204 109 142 25 15 6 13 119 153 152 154 123 111 125 171 184 182 148 168 108 110 222 120 277 171 224 346 316 296 298 280 281 259 266 269 269 302 294 226 225 262 252 217 161 244 262 275 70 349 295 288 271 264 267 268 268 266 260
241 243 234 233 237 235 237 241 244 249 254 259 259 259 257 257 260 262 258 269 283 306 329 328 30 118 344 216 216 222 129 222 317 343 7 351 328 270 290 200 165 148 143 162 234 231 165 160 132 142 212 74 282 304 265 242 343 274 352 312 296 290 293 258 252 281 146 261 256 248 287 262 157 216 239 249 284 304 291 283 284 287 281 276 273 272 268 259
230 233 229 228 232 237 238 237 247 255 256 257 259 262 262 266 266 262 252 251 272 303 325 347 106 78 336 278 236 240 277 283 306 321 326 292 309 347 7 76 154 142 153 141 208 212 169 141 132 143 226 120 168 252 153 74 294 329 224 232 306 320 293 290 49 73 144 249 332 332 322 297 181 222 247 266 292 310 311 291 288 284 284 281 280 279 278 270
224 226 228 228 224 226 232 239 254 256 255 253 257 263 273 276 279 261 247 255 294 295 349 45 95 104 239 250 280 252 206 262 310 312 294 163 166 280 39 26 60 53 24 116 87 109 127 120 127 161 98 172 271 295 344 337 21 280 276 115 252 335 286 281 99 227 339 258 10 70 261 293 260 225 252 262 259 265 281 287 294 294 293 288 285 281 281 279
221 225 228 225 225 225 228 236 244 254 252 253 258 261 267 278 270 255 246 278 277 307 352 80 59 69 264 272 256 291 277 95 272 253 172 138 148 27 120 43 47 41 97 105 131 78 125 115 103 84 249 305 31 9 307 348 341 306 351 282 321 201 275 297 295 253 242 317 32 69 280 257 288 262 230 221 142 204 299 296 292 289 287 289 287 284 280 278
222 226 228 225 225 223 224 230 235 246 247 248 252 264 268 269 256 236 245 255 297 303 87 45 313 93 295 291 285 0 64 247 255 250 233 155 174 170 167 106 116 52 69 29 58 99 54 95 85 185 232 348 65 84 352 0 333 338 177 290 288 223 276 331 0 357 346 299 338 174 264 316 294 301 145 126 310 306 293 286 286 283 285 286 285 285 286 293
225 228 225 226 225 220 221 221 227 235 245 248 247 248 250 251 247 243 255 301 82 94 110 273 122 335 288 231 295 312 265 249 237 14 35 170 154 146 111 86 56 81 66 71 22 77 343 76 277 22 34 168 153 102 24 303 282 273 6 234 226 277 316 292 284 34 69 78 303 301 266 257 270 287 287 281 269 279 274 277 280 281 282 282 286 285 284 285
293 231 224 228 224 219 217 212 215 222 235 241 231 214 231 242 262 284 13 72 60 105 79 68 347 298 262 32 264 246 157 299 19 155 84 317 136 137 113 103 64 95 89 51 353 133 306 147 35 200 353 139 143 121 152 242 219 214 184 255 290 261 210 256 292 257 5 307 297 290 275 269 271 278 286 293 290 267 270 270 276 282 285 286 284 285 283 280
18 14 318 235 222 223 215 212 205 210 217 230 233 239 319 299 57 127 194 171 140 330 308 203 146 156 237 227 275 313 265 193 109 122 172 118 45 106 75 83 108 124 146 115 260 131 343 73 30 41 245 180 199 186 196 224 135 241 185 226 253 284 285 270 255 298 328 303 286 276 270 280 284 285 288 293 295 284 280 280 277 275 277 280 279 278 279 275
17 9 8 6 297 227 217 210 201 203 206 195 107 74 24 314 322 251 291 229 218 215 188 183 203 284 316 281 218 273 353 95 145 335 154 282 128 115 48 98 37 56 118 179 131 195 111 173 183 208 230 214 199 207 217 243 16 8 286 258 255 266 277 272 279 252 345 304 242 258 269 275 276 278 287 291 299 284 274 277 280 274 276 277 275 273 272 272
11 7 7 357 1 345 246 211 202 199 191 124 128 101 241 202 304 298 226 235 231 231 242 236 201 212 226 103 295 24 270 291 96 184 191 147 127 125 201 113 138 176 205 160 148 283 85 210 222 223 236 134 201 212 236 266 290 270 271 272 277 243 271 266 294 321 295 192 290 271 285 280 281 285 283 287 286 279 283 283 267 268 269 266 270 276 276 276
6 5 2 358 355 349 348 254 199 195 165 131 143 189 251 258 219 220 354 296 235 228 229 239 231 259 257 240 106 167 80 334 276 195 216 148 200 153 231 157 166 197 125 105 48 174 206 221 228 230 217 96 139 194 210 214 241 246 238 268 292 264 265 283 269 10 140 311 264 256 288 288 289 286 286 278 270 273 282 260 263 266 270 272 266 270 283 298
5 1 355 358 348 350 342 337 227 188 130 140 184 146 234 157 179 7 81 267 275 222 219 229 231 233 257 237 215 95 249 227 245 183 190 163 145 219 151 168 195 121 137 173 190 174 264 242 239 238 156 204 247 139 191 228 241 238 239 237 243 261 343 305 250 349 331 6 297 309 297 287 280 275 279 279 252 259 261 256 249 237 250 251 259 265 284 287
5 355 355 349 350 341 344 333 298 172 163 175 162 184 135 134 152 45 79 266 290 274 206 216 208 196 228 213 197 176 193 236 185 231 184 158 163 164 148 179 154 148 195 194 207 199 211 188 253 209 200 181 215 197 165 201 248 212 221 238 263 250 240 226 282 334 308 285 270 309 291 284 259 287 317 304 263 259 266 272 271 269 247 265 288 291 243 256
357 355 350 349 345 344 336 332 282 185 145 128 209 158 154 154 152 129 358 292 245 271 95 338 150 238 203 58 132 166 220 295 221 319 173 168 148 104 219 147 115 218 196 201 231 251 260 250 99 123 182 185 203 231 209 183 254 150 214 215 236 252 263 254 285 357 339 319 357 8 331 290 273 244 266 286 323 306 305 318 293 273 279 280 265 257 280 265
359 356 352 351 351 344 323 315 318 139 154 182 190 158 150 145 127 143 74 312 282 231 40 272 136 297 120 120 119 158 96 232 222 204 160 196 123 146 93 188 155 226 173 158 214 238 241 181 193 196 167 176 204 228 216 178 246 342 259 199 229 237 246 269 286 5 286 222 270 48 72 287 132 296 288 286 279 276 294 288 283 286 277 277 253 257 257 263
359 351 348 351 354 353 30 72 337 125 136 248 133 150 136 118 115 70 306 263 284 179 157 270 83 216 132 181 157 159 144 262 18 107 168 191 176 196 142 196 56 355 134 159 22 260 149 226 214 193 153 164 172 243 210 168 188 253 247 180 207 223 227 243 241 209 258 272 280 184 179 269 295 206 250 279 284 283 289 282 283 276 266 265 261 257 251 254
351 350 345 344 349 0 231 285 276 216 208 321 150 128 119 110 107 53 105 317 277 73 122 201 213 37 89 148 172 153 225 169 38 316 17 252 81 325 158 193 182 171 183 117 227 335 159 190 186 194 191 189 227 213 134 166 165 222 173 150 170 194 206 213 183 235 240 2 302 177 121 320 262 271 283 255 293 286 274 282 285 287 285 268 271 272 265 258
348 347 345 341 344 355 38 124 317 273 338 153 98 91 94 88 35 102 77 262 223 63 85 82 249 51 34 63 234 46 313 327 144 354 331 76 50 133 212 206 171 173 216 188 230 250 319 177 207 184 164 221 204 139 160 165 201 258 133 85 93 90 76 161 151 135 312 36 265 168 187 185 278 263 257 312 236 285 272 288 290 275 271 268 274 280 281 293
343 343 346 347 353 16 5 301 171 345 287 127 120 110 101 86 135 123 225 248 72 332 122 150 122 206 100 139 267 281 286 340 37 81 44 152 193 42 43 145 118 115 231 291 274 227 169 277 166 137 212 208 161 205 165 181 185 117 120 141 358 40 44 21 74 76 332 238 263 182 202 171 282 262 218 176 217 203 282 303 294 313 312 277 250 245 268 284
338 338 343 4 33 309 297 5 31 357 332 147 116 100 95 28 218 166 231 231 24 182 54 153 186 85 147 150 187 278 93 316 72 150 137 85 173 50 59 46 49 62 5 317 268 265 276 252 236 244 122 112 112 102 10 219 135 123 93 140 32 285 21 32 335 43 189 270 270 232 191 179 207 285 280 241 287 259 217 257 277 302 294 287 291 280 260 254
328 333 335 8 349 11 6 333 344 353 173 192 129 112 87 213 255 219 227 38 267 285 128 185 9 97 157 340 71 160 165 59 181 163 164 173 170 176 207 177 149 123 272 208 265 61 241 231 226 272 207 152 154 109 331 79 164 115 120 66 118 262 36 334 27 241 205 231 281 55 140 51 238 250 307 299 279 270 222 226 245 254 271 277 275 270 263 263
323 323 341 5 10 2 299 315 345 20 46 269 124 124 155 204 242 221 238 25 261 93 257 88 182 92 169 19 284 141 351 161 190 177 120 181 177 221 225 198 196 133 212 218 218 347 275 253 202 216 42 207 143 176 199 195 188 156 172 167 99 195 149 266 266 281 311 291 259 163 353 271 293 284 235 243 262 264 270 260 252 244 242 241 249 266 290 293
314 349 38 313 306 238 259 288 304 100 152 262 171 118 183 235 243 227 220 225 240 23 62 85 54 57 146 184 249 154 344 257 150 201 148 179 185 216 216 234 190 251 98 143 164 190 342 320 245 135 230 177 180 206 189 152 155 192 110 160 180 145 162 213 204 208 217 227 303 269 112 236 114 245 250 232 263 285 270 260 268 263 253 258 259 266 277 283
321 43 32 323 331 254 222 245 229 154 147 212 165 170 203 231 246 243 230 244 260 51 47 329 89 81 294 310 265 253 161 242 171 143 178 172 216 207 191 211 210 113 217 123 235 85 212 234 252 178 330 157 187 198 108 102 90 188 168 63 90 225 126 200 207 179 278 335 338 225 208 207 204 270 296 263 260 260 263 280 275 267 251 242 263 254 248 253
36 300 17 283 206 266 200 202 173 147 180 197 176 197 216 212 231 202 245 190 168 211 170 22 113 101 230 289 312 204 291 153 193 137 261 219 234 223 222 231 191 193 178 192 177 189 284 272 237 188 69 178 189 142 190 148 199 200 117 204 205 135 157 288 352 108 68 17 250 153 294 271 296 281 262 282 307 287 288 257 250 247 236 233 237 235 244 252
5 359 358 291 279 227 169 166 151 168 213 216 201 220 220 240 233 157 277 136 228 134 131 221 212 198 187 244 193 170 240 77 221 156 231 146 268 225 221 230 178 199 215 186 276 194 177 242 309 155 221 255 54 202 176 223 137 108 185 229 77 122 107 140 215 329 54 209 272 94 227 293 345 288 327 327 351 294 275 251 252 265 305 260 245 237 243 250
86 355 258 270 256 235 184 168 151 181 209 222 232 233 219 249 231 231 138 30 34 17 182 202 272 178 273 206 246 189 207 179 200 157 233 189 261 198 187 216 199 201 214 233 310 286 109 292 230 236 90 6 37 99 29 308 151 149 185 222 130 239 247 289 92 261 254 250 263 285 223 252 224 255 263 288 309 296 284 320 323 274 265 249 250 235 234 245
92 64 331 261 301 257 176 148 143 181 195 221 227 245 228 246 249 224 246 223 114 53 216 261 214 248 178 212 199 72 150 199 169 192 131 240 233 175 186 174 257 213 213 192 237 244 27 228 305 284 136 241 60 151 198 177 272 90 51 315 192 94 189 140 196 202 137 272 325 276 264 268 214 223 179 206 218 240 272 291 261 242 238 236 237 232 223 231
114 66 264 269 324 90 136 135 148 199 220 219 213 231 207 251 253 264 167 238 251 214 232 253 201 267 250 230 156 199 234 206 176 211 190 259 224 270 171 214 174 189 194 198 211 324 266 146 263 90 317 82 184 202 198 160 181 211 169 248 260 194 230 122 309 156 195 192 215 272 277 257 249 179 177 204 215 232 222 254 274 256 246 244 245 239 230 228
123 129 264 248 306 138 107 105 161 208 224 252 261 256 250 252 14 333 255 244 254 255 263 255 224 242 240 292 267 184 229 193 199 189 203 277 199 270 191 172 155 82 118 103 220 225 243 253 240 119 325 225 237 207 187 187 182 183 184 203 197 167 188 222 251 124 174 201 229 207 251 277 264 151 201 193 231 215 233 210 256 272 273 248 245 242 230 233
171 220 249 96 195 140 121 157 220 229 257 222 220 223 251 350 271 270 275 332 167 249 304 269 257 256 255 256 255 227 189 225 206 201 234 221 215 214 293 147 158 151 136 185 198 213 192 146 261 230 226 226 221 240 270 258 236 219 193 211 190 195 182 194 238 221 66 269 114 175 274 261 267 148 191 197 213 219 224 192 250 270 270 275 258 247 240 223
207 214 324 127 223 141 114 249 252 224 235 254 316 307 292 277 257 270 333 310 287 213 224 231 244 266 246 249 249 254 170 252 163 223 199 229 236 225 218 164 132 163 77 336 353 317 147 242 241 261 273 306 300 296 317 101 200 259 265 125 140 201 206 217 231 161 181 183 206 233 237 257 268 144 188 202 217 235 259 211 246 261 272 279 262 260 239 224
211 169 223 265 184 159 146 197 214 228 248 286 268 266 282 289 321 310 269 315 260 343 288 288 336 249 314 315 311 258 177 262 196 229 239 221 260 229 209 173 168 194 173 225 182 194 184 196 213 254 262 333 307 5 290 326 124 213 210 211 213 224 228 245 59 27 234 198 214 204 240 247 267 272 177 206 210 235 242 249 204 254 276 261 243 231 233 240
119 307 231 301 162 185 210 193 223 224 222 242 253 261 267 269 238 252 260 267 290 250 294 261 159 30 318 342 307 302 290 253 290 235 263 277 267 316 346 230 223 216 210 236 326 324 225 201 185 233 223 230 235 229 231 217 210 209 319 235 225 210 219 210 242 211 242 214 226 230 254 254 269 273 257 217 256 276 260 249 245 219 244 279 295 272 250 237
163 228 195 209 263 195 250 260 286 210 239 239 259 255 260 266 276 276 293 277 254 276 272 285 304 299 282 298 290 282 270 263 243 312 243 284 286 274 185 57 54 284 309 312 333 64 304 306 221 223 229 231 232 245 263 97 99 190 208 212 218 214 214 220 230 233 231 236 235 233 243 257 258 267 271 262 206 242 250 244 238 252 266 261 254 256 251 238
257 234 177 215 301 227 194 199 208 201 228 200 248 164 248 240 260 282 233 276 231 258 272 249 255 261 268 249 251 268 249 279 266 261 260 265 249 264 331 324 305 271 261 280 104 78 203 252 264 264 252 253 257 258 256 160 178 206 206 215 214 212 202 205 212 233 232 247 247 225 239 245 249 263 270 277 269 246 239 243 265 271 263 257 229 244 354 148
220 241 216 183 189 202 192 222 204 206 231 211 255 234 253 259 221 248 228 242 316 319 245 348 250 246 266 276 302 282 280 277 276 283 292 287 291 313 307 336 296 310 316 305 281 236 226 244 246 264 269 273 267 268 277 277 251 235 223 216 215 216 209 211 221 229 225 228 242 228 234 244 250 251 264 266 265 263 240 241 227 243 256 275 153 212 217 216
188 305 248 287 234 191 199 187 197 193 214 213 224 226 255 257 255 239 212 312 354 298 292 321 281 27 23 17 35 275 311 295 291 307 14 343 347 349 313 321 294 45 30 322 340 243 285 229 253 251 267 267 268 270 271 268 278 276 256 237 231 217 224 221 226 225 227 236 239 242 240 245 242 243 245 255 261 272 260 211 228 234 228 220 220 221 217 212
202 187 248 33 74 270 125 170 187 184 206 212 215 220 232 234 250 259 267 256 262 259 247 260 274 52 357 32 2 328 312 312 312 299 312 324 318 313 281 262 282 333 13 343 331 302 275 297 312 293 284 272 269 266 259 260 257 260 266 268 258 243 240 231 231 232 236 246 247 249 246 248 242 249 252 254 261 339 107 217 224 227 227 221 219 225 226 216
220 234 150 156 227 215 200 165 162 179 195 207 223 221 237 231 244 241 254 248 256 239 309 287 312 358 238 326 309 258 275 287 296 295 293 307 290 336 330 303 338 327 319 312 277 300 311 318 346 318 298 292 292 286 278 276 270 261 257 255 260 257 253 242 241 232 235 243 241 245 247 248 247 247 254 261 273 274 271 252 228 233 232 227 227 231 229 225
70 324 85 116 228 193 196 217 182 172 213 190 200 202 211 224 233 210 258 225 216 223 218 188 126 302 282 289 285 291 266 172 247 267 286 278 277 276 266 280 271 265 302 278 290 281 278 296 287 292 288 276 291 285 297 298 299 280 266 250 251 252 249 248 244 238 234 239 244 243 246 241 247 250 262 262 260 260 263 265 253 239 241 232 230 234 233 224